Weather History for Namest Nad Oslav, Czech Republic

Change the Weather History Date:

Tuesday, November 27, 2012

  Actual Average Record
Temperature  
Mean Temperature 42 °F -  
Max Temperature 44 °F - - ()
Min Temperature 41 °F - - ()
Degree Days  
Heating Degree Days 22    
Moisture  
Dew Point 43 °F    
Average Humidity 99    
Maximum Humidity 100    
Minimum Humidity 93    
Precipitation  
Precipitation 0.00 in - - ()
Sea Level Pressure  
Sea Level Pressure 29.71 in    
Wind  
Wind Speed 4 mph ()    
Max Wind Speed 7 mph    
Max Gust Speed -    
Visibility 1.3 miles    
Events Fog    
T = Trace of Precipitation, MM = Missing Value Source: Averaged Metar Reports

Daily Weather History Graph

Daily Weather History Graph

Search for Another Location

Airport:

Trip Planner

Search our weather history database for the weather conditions in past years. The results will help you decide how hot, cold, wet, or windy it might be!

Date:

Astronomy

Nov. 27, 2012 Rise Set
Actual Time 7:23 AM CET 4:02 PM CET
Civil Twilight 6:47 AM CET 4:38 PM CET
Nautical Twilight 6:07 AM CET 5:18 PM CET
Astronomical Twilight 5:29 AM CET 5:56 PM CET
Moon 3:23 PM CET (11/27) 6:09 AM CET (11/27)
Length of Visible Light 9h 50m
Length of Day
8h 38m
Waxing Gibbous, 99% of the Moon is Illuminated
Nov 27
Waxing Gibbous
Nov 28
Full
Dec 6
Last Quarter
Dec 13
New
Dec 20
First Quarter

Hourly Weather History & Observations

Time (CET) Temp. Windchill Dew Point Humidity Pressure Visibility Wind Dir Wind Speed Gust Speed Precip Events Conditions
12:00 AM 42.8 °F 39.3 °F 42.8 °F 100% 29.77 in 0.1 mi ESE 5.8 mph - N/A Fog Light Drizzle
1:00 AM 42.8 °F 38.6 °F 42.8 °F 100% 29.77 in 0.1 mi ESE 6.9 mph - N/A Fog Light Drizzle
2:00 AM 42.8 °F 39.3 °F 42.8 °F 100% 29.74 in 0.1 mi ESE 5.8 mph - N/A Fog Light Drizzle
3:00 AM 42.8 °F 41.1 °F 42.8 °F 100% 29.74 in 0.1 mi East 3.5 mph - N/A Fog Light Drizzle
4:00 AM 42.8 °F 39.3 °F 42.8 °F 100% 29.71 in 0.1 mi East 5.8 mph - N/A Fog Light Drizzle
5:00 AM 44.6 °F 40.7 °F 44.6 °F 100% 29.71 in 0.3 mi ESE 6.9 mph - N/A Fog Light Drizzle
6:00 AM 44.6 °F 41.4 °F 44.6 °F 100% 29.71 in 0.6 mi East 5.8 mph - N/A   Overcast
6:33 AM 44.6 °F 43.1 °F 44.6 °F 100% 29.71 in 1.1 mi ESE 3.5 mph - N/A   Overcast
7:00 AM 44.6 °F 41.4 °F 42.8 °F 93% 29.71 in 1.0 mi ESE 5.8 mph - N/A   Overcast
8:00 AM 42.8 °F 40.1 °F 42.8 °F 100% 29.71 in 1.0 mi ESE 4.6 mph - N/A   Overcast
9:00 AM 44.6 °F - 44.6 °F 100% 29.74 in 1.0 mi Variable 2.3 mph - N/A   Overcast
10:00 AM 44.6 °F 43.1 °F 44.6 °F 100% 29.74 in 1.2 mi ESE 3.5 mph - N/A   Overcast
11:00 AM 44.6 °F 43.1 °F 44.6 °F 100% 29.74 in 1.6 mi SE 3.5 mph - N/A   Overcast
12:00 PM 44.6 °F - 44.6 °F 100% 29.71 in 1.6 mi Variable 2.3 mph - N/A   Overcast
1:00 PM 44.6 °F - 42.8 °F 93% 29.71 in 2.5 mi Variable 2.3 mph - N/A   Overcast
2:00 PM 44.6 °F 43.1 °F 44.6 °F 100% 29.71 in 2.8 mi East 3.5 mph - N/A   Overcast
3:00 PM 44.6 °F - 42.8 °F 93% 29.71 in 2.5 mi Calm Calm - N/A   Overcast
4:00 PM 44.6 °F 43.1 °F 42.8 °F 93% 29.71 in 2.5 mi NE 3.5 mph - N/A   Overcast
5:00 PM 44.6 °F - 42.8 °F 93% 29.71 in 3.1 mi Variable 2.3 mph - N/A   Overcast
6:00 PM 42.8 °F - 42.8 °F 100% 29.71 in 3.1 mi Variable 2.3 mph - N/A   Overcast
6:21 PM 42.8 °F - 42.8 °F 100% 29.71 in 3.7 mi Variable 2.3 mph - N/A   Overcast
6:34 PM 42.8 °F - 42.8 °F 100% 29.68 in 3.7 mi Variable 2.3 mph - N/A   Overcast
6:45 PM 42.8 °F - 42.8 °F 100% 29.68 in 1.6 mi Variable 2.3 mph - N/A   Overcast
7:00 PM 42.8 °F - 42.8 °F 100% 29.68 in 0.7 mi Calm Calm - N/A   Overcast
7:22 PM 42.8 °F 41.1 °F 42.8 °F 100% 29.68 in 0.4 mi SE 3.5 mph - N/A Fog Fog
8:00 PM 42.8 °F - 42.8 °F 100% 29.68 in 0.2 mi Variable 2.3 mph - N/A Fog Fog
9:00 PM 41.0 °F - 41.0 °F 100% 29.68 in 0.2 mi Variable 2.3 mph - N/A Fog Fog
10:00 PM 41.0 °F - 41.0 °F 100% 29.68 in 0.2 mi ENE 2.3 mph - N/A Fog Fog
11:00 PM 41.0 °F 39.0 °F 41.0 °F 100% 29.68 in 0.1 mi East 3.5 mph - N/A Fog Fog